Regional Weather Roundup
Issued by NWS

Home | Current Version | Previous Version | Text Only | Print | Product List | Glossary Off
Versions: 1 2 3 4 5 6 7 8 9 10 11 12 13 14 15 16 17 18 19 20 21 22 23 24 25 26 27 28 29 30 31 32 33 34 35 36 37 38 39 40 41 42 43 44 45 46 47 48 49 50

000
ASUS43 KLMK 282302
RWRKY
KENTUCKY REGIONAL WEATHER ROUNDUP
NATIONAL WEATHER SERVICE LOUISVILLE KY
700 PM EDT TUE MAR 28 2017

NOTE "FAIR" INDICATES FEW OR NO CLOUDS BELOW 12,000 FEET
WITH NO SIGNIFICANT WEATHER AND/OR OBSTRUCTIONS TO VISIBILITY.

KYZ001>023-026-027-061>063-070>075-290000-
WESTERN AND SOUTH CENTRAL KENTUCKY

CITY           SKY/WX    TMP DP  RH WIND       PRES   REMARKS
PADUCAH        CLOUDY    61  51  70 NE9       30.02S
HENDERSON      CLOUDY    61  50  67 NE3       30.05R
OWENSBORO        N/A    N/A N/A N/A MISG        N/A
HOPKINSVILLE   CLOUDY    61  56  83 N13       30.03R
BOWLING GREEN  CLOUDY    63  55  75 N5        30.03S
GLASGOW        NOT AVBL
$$

KYZ024-025-028>034-038-045-046-053-290000-
NORTH CENTRAL KENTUCKY

CITY           SKY/WX    TMP DP  RH WIND       PRES   REMARKS
LOUISVILLE/SDF MOSUNNY   63  48  58 N13       30.04R
LOUISVILLE/LOU SUNNY     64  50  60 NW7       30.04R
FORT KNOX      CLOUDY    63  53  68 N7        30.01R
$$

KYZ035>037-039>044-047>052-055>060-089>105-290000-
NORTHEAST KENTUCKY

CITY           SKY/WX    TMP DP  RH WIND       PRES   REMARKS
LEXINGTON      CLOUDY    60  53  77 N7        30.04R
COVINGTON      CLOUDY    56  50  80 N8        30.06R
FRANKFORT      CLOUDY    61  51  70 VRB5      30.03R
$$

KYZ054-064>069-076>088-106>120-290000-
SOUTHEAST KENTUCKY

CITY           SKY/WX    TMP DP  RH WIND       PRES   REMARKS
JACKSON        CLOUDY    61  52  72 NW3       30.02R
LONDON         CLOUDY    63  51  65 W8        30.02R
SOMERSET       NOT AVBL
MIDDLESBORO    CLOUDY    65  52  63 NW5       30.01R
MONTICELLO     CLOUDY    62  53  72 N10       30.05R
$$




USA.gov is the U.S. government's official web portal to all federal, state and local government web resources and services.